Tracking 25612 objects as of 19-May-2022
HD Live streaming from Space Station
objects crossing your sky now

COSMOS 2251 DEB

Track COSMOS 2251 DEB now!
10-day predictions


NORAD ID: 33948
Int'l Code: 1993-036FD
Perigee: 769.5 km
Apogee: 805.1 km
Inclination: 74.0 °
Period: 100.5 minutes
Semi major axis: 7158 km
RCS: 0.032 m2 (small)
Launch date: June 16, 1993
Source: Commonwealth of Independent States (former USSR) (CIS)
Launch site: PLESETSK MISSILE AND SPACE COMPLEX (PKMTR)

Note: This is SATELLITE DEBRIS
aabbcc
Your satellite tracking list
Your tracking list is empty




NASA's NSSDC Master Catalog

Two Line Element Set (TLE):
1 33948U 93036FD  22139.18214391  .00000447  00000-0  17052-3 0  9997
2 33948  74.0349 172.0991 0024845 210.9030 149.0661 14.33470307693482
Source of the keplerian elements: AFSPC